Idaho Cnty AP, Grangeville, I, ID

5:27 PM PDT on September 24, 2017 (GMT -0700)
Idaho Cnty AP, Grangeville, I

Weather History for KGIC - August, 2013

Change the Weather History Date:

Sunday, August 4, 2013

  Actual Average (KP69) Record (KP69)
Temperature  
Mean Temperature 66 °F -  
Max Temperature 84 °F 89 °F 104 °F (2017)
Min Temperature 48 °F 54 °F 48 °F (1996)
Cooling Degree Days 1    
Growing Degree Days 16 (Base 50)    
Moisture  
Dew Point 47 °F    
Average Humidity 56    
Maximum Humidity 90    
Minimum Humidity 20    
Precipitation  
Precipitation 0.00 in - - ()
Sea Level Pressure  
Sea Level Pressure 30.11 in    
Wind  
Wind Speed 2 mph (ENE)    
Max Wind Speed 10 mph    
Max Gust Speed 17 mph    
Visibility 10 miles    
Events      
Averages and records for this station are not official NWS values.
T = Trace of Precipitation, MM = Missing Value Source: NWS Daily Summary

Daily Weather History Graph

Daily Weather History Graph

Search for Another Location

Airport or City:

Trip Planner

Search our weather history database for the weather conditions in past years. The results will help you decide how hot, cold, wet, or windy it might be!

Date:

Astronomy

Aug. 04, 2013 Rise Set
Actual Time 5:31 AM PDT 8:09 PM PDT
Civil Twilight 4:57 AM PDT 8:43 PM PDT
Nautical Twilight 4:14 AM PDT 9:25 PM PDT
Astronomical Twilight 3:24 AM PDT 10:15 PM PDT
Moon 3:34 AM PDT (8/4) 6:34 PM PDT (8/4)
Length of Visible Light 15h 46m
Length of Day
14h 38m
Waning Crescent, 4% of the Moon is Illuminated
Aug 4
Waning Crescent
Aug 6
New
Aug 14
First Quarter
Aug 20
Full
Aug 28
Last Quarter

Hourly Weather History & Observations

Time (PDT) Temp. Dew Point Humidity Pressure Visibility Wind Dir Wind Speed Gust Speed Precip Events Conditions
12:15 AM 55.8 °F 49.1 °F 78% 30.14 in 10.0 mi Calm Calm - N/A   Clear
12:35 AM 55.4 °F 49.3 °F 80% 30.14 in 10.0 mi Calm Calm - N/A   Clear
12:55 AM 54.0 °F 48.7 °F 82% 30.14 in 10.0 mi Calm Calm - N/A   Clear
1:15 AM 53.1 °F 48.6 °F 85% 30.14 in 10.0 mi Calm Calm - N/A   Clear
1:35 AM 52.7 °F 48.0 °F 84% 30.14 in 10.0 mi Calm Calm - N/A   Clear
1:55 AM 52.2 °F 47.7 °F 85% 30.13 in 10.0 mi Calm Calm - N/A   Clear
2:15 AM 51.8 °F 47.7 °F 86% 30.13 in 10.0 mi Calm Calm - N/A   Clear
2:35 AM 50.9 °F 46.6 °F 85% 30.13 in 10.0 mi East 3.5 mph - N/A   Clear
2:55 AM 50.5 °F 46.8 °F 87% 30.13 in 10.0 mi Calm Calm - N/A   Clear
3:15 AM 49.8 °F 46.4 °F 88% 30.13 in 10.0 mi Calm Calm - N/A   Clear
3:35 AM 50.0 °F 46.6 °F 88% 30.13 in 10.0 mi SSW 3.5 mph - N/A   Clear
3:55 AM 50.2 °F 46.6 °F 87% 30.13 in 10.0 mi South 3.5 mph - N/A   Clear
4:15 AM 49.6 °F 46.2 °F 88% 30.13 in 10.0 mi Calm Calm - N/A   Clear
4:35 AM 50.2 °F 46.6 °F 87% 30.13 in 10.0 mi Calm Calm - N/A   Clear
4:55 AM 49.5 °F 46.2 °F 89% 30.13 in 10.0 mi Calm Calm - N/A   Clear
5:15 AM 48.9 °F 45.7 °F 89% 30.13 in 10.0 mi Calm Calm - N/A   Clear
5:35 AM 48.6 °F 45.5 °F 89% 30.14 in 10.0 mi Calm Calm - N/A   Clear
5:55 AM 48.6 °F 45.5 °F 89% 30.14 in 10.0 mi SSW 3.5 mph - N/A   Clear
6:15 AM 48.7 °F 45.7 °F 89% 30.14 in 10.0 mi Calm Calm - N/A   Clear
6:35 AM 49.6 °F 46.8 °F 90% 30.14 in 10.0 mi Calm Calm - N/A   Clear
6:55 AM 52.5 °F 49.5 °F 89% 30.14 in 10.0 mi Calm Calm - N/A   Clear
7:15 AM 55.4 °F 52.2 °F 89% 30.15 in 10.0 mi Calm Calm - N/A   Clear
7:35 AM 57.9 °F 52.7 °F 83% 30.15 in 10.0 mi Calm Calm - N/A   Clear
7:55 AM 59.5 °F 52.0 °F 76% 30.15 in 10.0 mi Calm Calm - N/A   Clear
8:15 AM 59.9 °F 51.6 °F 74% 30.15 in 10.0 mi Calm Calm - N/A   Clear
8:35 AM 61.5 °F 52.0 °F 71% 30.15 in 10.0 mi Calm Calm - N/A   Clear
8:55 AM 63.1 °F 52.0 °F 67% 30.15 in 10.0 mi NE 4.6 mph - N/A   Clear
9:15 AM 64.6 °F 51.6 °F 63% 30.15 in 10.0 mi ENE 3.5 mph - N/A   Clear
9:35 AM 65.8 °F 51.3 °F 59% 30.15 in 10.0 mi NE 4.6 mph - N/A   Clear
9:55 AM 66.9 °F 51.3 °F 57% 30.15 in 10.0 mi NNE 3.5 mph - N/A   Clear
10:15 AM 68.9 °F 51.1 °F 53% 30.15 in 10.0 mi Calm Calm - N/A   Clear
10:35 AM 69.8 °F 50.2 °F 50% 30.15 in 10.0 mi NE 4.6 mph - N/A   Clear
10:55 AM 71.2 °F 50.5 °F 48% 30.15 in 10.0 mi NE 3.5 mph - N/A   Clear
11:15 AM 72.5 °F 50.2 °F 45% 30.15 in 10.0 mi ENE 4.6 mph - N/A   Clear
11:35 AM 73.6 °F 50.4 °F 44% 30.14 in 10.0 mi East 4.6 mph - N/A   Clear
11:55 AM 74.5 °F 49.6 °F 42% 30.14 in 10.0 mi East 3.5 mph - N/A   Clear
12:15 PM 75.6 °F 48.4 °F 38% 30.14 in 10.0 mi SE 4.6 mph - N/A   Clear
12:35 PM 76.5 °F 48.6 °F 37% 30.13 in 10.0 mi North 4.6 mph - N/A   Clear
12:55 PM 77.4 °F 46.9 °F 34% 30.13 in 10.0 mi WNW 4.6 mph - N/A   Clear
1:15 PM 79.5 °F 44.8 °F 29% 30.12 in 10.0 mi WSW 4.6 mph - N/A   Clear
1:35 PM 80.1 °F 43.9 °F 28% 30.12 in 10.0 mi North 4.6 mph - N/A   Clear
1:55 PM 80.8 °F 43.0 °F 26% 30.12 in 10.0 mi Calm Calm - N/A   Clear
2:15 PM 81.3 °F 42.1 °F 25% 30.11 in 10.0 mi WNW 10.4 mph - N/A   Clear
2:35 PM 82.4 °F 41.0 °F 23% 30.11 in 10.0 mi NNW 6.9 mph - N/A   Clear
2:55 PM 82.9 °F 40.8 °F 22% 30.10 in 10.0 mi Calm Calm - N/A   Clear
3:15 PM 83.5 °F 39.7 °F 21% 30.09 in 10.0 mi WSW 4.6 mph - N/A   Clear
3:35 PM 84.0 °F 38.8 °F 20% 30.08 in 10.0 mi West 3.5 mph - N/A   Scattered Clouds
3:55 PM 84.0 °F 40.8 °F 22% 30.08 in 10.0 mi ENE 9.2 mph 17.3 mph N/A   Clear
4:15 PM 83.5 °F 43.0 °F 24% 30.08 in 10.0 mi NE 9.2 mph 16.1 mph N/A   Clear
4:35 PM 83.1 °F 41.7 °F 23% 30.07 in 10.0 mi ENE 5.8 mph - N/A   Clear
4:55 PM 82.8 °F 41.0 °F 23% 30.06 in 10.0 mi East 3.5 mph - N/A   Clear
5:15 PM 82.9 °F 42.6 °F 24% 30.06 in 10.0 mi North 9.2 mph - N/A   Clear
5:35 PM 82.4 °F 42.6 °F 24% 30.05 in 10.0 mi ENE 4.6 mph - N/A   Clear
5:55 PM 82.2 °F 43.7 °F 26% 30.05 in 10.0 mi NNE 9.2 mph - N/A   Clear
6:15 PM 81.5 °F 44.4 °F 27% 30.05 in 10.0 mi NNE 6.9 mph - N/A   Clear
6:35 PM 80.8 °F 45.1 °F 28% 30.05 in 10.0 mi ENE 6.9 mph - N/A   Clear
6:55 PM 79.9 °F 45.1 °F 29% 30.05 in 10.0 mi NE 8.1 mph - N/A   Clear
7:15 PM 78.6 °F 45.5 °F 31% 30.05 in 10.0 mi NNE 6.9 mph - N/A   Clear
7:35 PM 76.1 °F 46.8 °F 35% 30.05 in 10.0 mi NNE 4.6 mph - N/A   Clear
7:55 PM 73.4 °F 48.2 °F 41% 30.06 in 10.0 mi Calm Calm - N/A   Clear
8:15 PM 71.1 °F 47.1 °F 42% 30.06 in 10.0 mi Calm Calm - N/A   Clear
8:35 PM 69.3 °F 46.6 °F 44% 30.06 in 10.0 mi Calm Calm - N/A   Clear
8:55 PM 68.4 °F 46.9 °F 46% 30.07 in 10.0 mi SE 3.5 mph - N/A   Clear
9:15 PM 65.5 °F 48.7 °F 55% 30.07 in 10.0 mi SSE 3.5 mph - N/A   Clear
9:35 PM 64.4 °F 48.7 °F 57% 30.08 in 10.0 mi SE 4.6 mph - N/A   Clear
9:55 PM 64.0 °F 48.2 °F 56% 30.08 in 10.0 mi SSE 4.6 mph - N/A   Clear
10:15 PM 62.6 °F 48.4 °F 60% 30.07 in 10.0 mi SE 4.6 mph - N/A   Clear
10:35 PM 61.9 °F 48.2 °F 61% 30.07 in 10.0 mi SSE 3.5 mph - N/A   Clear
10:55 PM 62.1 °F 47.8 °F 60% 30.07 in 10.0 mi SSE 4.6 mph - N/A   Clear
11:15 PM 62.1 °F 47.8 °F 60% 30.06 in 10.0 mi Calm Calm - N/A   Clear
11:35 PM 62.4 °F 47.8 °F 59% 30.06 in 10.0 mi Calm Calm - N/A   Clear
11:55 PM 60.1 °F 48.6 °F 66% 30.06 in 10.0 mi Calm Calm - N/A   Clear